When you browse on this site, cookies collect data to enhance your experience and personalize the content and advertising you see.
Visit our Privacy Policy to learn more. By continuing to use the site, you agree to this use of cookies and data.
  • In Deutschland
  • Länderverzeichnis
  • Für 7 Tage
  • Wassertemperatur
  • Wetterkarte
  • Widgets
  • user-avatar
    Anmelden

    Stündliche Wetter Aumuhle

    Heute, 18 September, Mittwoch

    Zeit Temperatur Niederschläge Wind Luftdruck Luftfeuchtigkeit
    00:00 +7°C° 0 mm 4 m/S 761 mmHg 83%
    01:00 +8°C° 0 mm 3 m/S 762 mmHg 85%
    02:00 +9°C° 0.1 mm 3 m/S 762 mmHg 84%
    03:00 +8°C° 0.1 mm 4 m/S 762 mmHg 83%
    04:00 +10°C° 0.1 mm 4 m/S 762 mmHg 83%
    05:00 +10°C° 0 mm 4 m/S 763 mmHg 82%
    06:00 +10°C° 0 mm 4 m/S 763 mmHg 81%
    07:00 +10°C° 0 mm 4 m/S 764 mmHg 80%
    08:00 +11°C° 0 mm 4 m/S 764 mmHg 73%
    09:00 +12°C° 0 mm 5 m/S 764 mmHg 66%
    10:00 +11°C° 0 mm 6 m/S 765 mmHg 60%
    11:00 +13°C° 0 mm 6 m/S 765 mmHg 58%
    12:00 +13°C° 0 mm 6 m/S 765 mmHg 57%
    13:00 +14°C° 0 mm 6 m/S 765 mmHg 55%
    14:00 +13°C° 0 mm 6 m/S 765 mmHg 56%
    15:00 +13°C° 0 mm 6 m/S 765 mmHg 57%
    16:00 +13°C° 0 mm 6 m/S 765 mmHg 58%
    17:00 +12°C° 0 mm 5 m/S 765 mmHg 62%
    18:00 +10°C° 0 mm 5 m/S 765 mmHg 65%
    19:00 +10°C° 0 mm 4 m/S 765 mmHg 69%
    20:00 +10°C° 0 mm 4 m/S 766 mmHg 71%
    21:00 +8°C° 0 mm 4 m/S 766 mmHg 73%
    22:00 +8°C° 0 mm 4 m/S 766 mmHg 75%
    23:00 +8°C° 0 mm 4 m/S 767 mmHg 75%

    Morgen, 19 September, Donnerstag

    Zeit Temperatur Niederschläge Wind Luftdruck Luftfeuchtigkeit
    00:00 +9°C° 0 mm 3 m/S 767 mmHg 75%
    01:00 +9°C° 0 mm 3 m/S 767 mmHg 74%
    02:00 +9°C° 0 mm 3 m/S 767 mmHg 78%
    03:00 +8°C° 0 mm 3 m/S 767 mmHg 81%
    04:00 +7°C° 0 mm 3 m/S 767 mmHg 84%
    05:00 +8°C° 0 mm 2 m/S 767 mmHg 82%
    06:00 +8°C° 0 mm 2 m/S 768 mmHg 80%
    07:00 +8°C° 0 mm 2 m/S 768 mmHg 78%
    08:00 +10°C° 0 mm 3 m/S 768 mmHg 72%
    09:00 +11°C° 0 mm 3 m/S 769 mmHg 65%
    10:00 +12°C° 0 mm 3 m/S 769 mmHg 58%
    11:00 +12°C° 0 mm 3 m/S 769 mmHg 58%
    12:00 +13°C° 0 mm 3 m/S 769 mmHg 57%
    13:00 +13°C° 0 mm 4 m/S 769 mmHg 57%
    14:00 +13°C° 0 mm 4 m/S 769 mmHg 57%
    15:00 +13°C° 0 mm 4 m/S 769 mmHg 58%
    16:00 +13°C° 0 mm 4 m/S 769 mmHg 59%
    17:00 +12°C° 0 mm 3 m/S 769 mmHg 65%
    18:00 +12°C° 0 mm 2 m/S 769 mmHg 71%
    19:00 +9°C° 0 mm 2 m/S 769 mmHg 77%
    20:00 +9°C° 0 mm 2 m/S 769 mmHg 80%
    21:00 +8°C° 0 mm 2 m/S 769 mmHg 84%
    22:00 +8°C° 0 mm 2 m/S 769 mmHg 87%
    23:00 +8°C° 0 mm 2 m/S 769 mmHg 89%

    übermorgen, 20 September, Freitag

    Zeit Temperatur Niederschläge Wind Luftdruck Luftfeuchtigkeit
    00:00 +7°C° 0 mm 2 m/S 769 mmHg 90%
    01:00 +7°C° 0 mm 2 m/S 769 mmHg 91%
    02:00 +7°C° 0 mm 2 m/S 769 mmHg 92%
    03:00 +7°C° 0 mm 2 m/S 769 mmHg 93%
    04:00 +7°C° 0 mm 2 m/S 769 mmHg 93%
    05:00 +7°C° 0 mm 2 m/S 768 mmHg 90%
    06:00 +8°C° 0 mm 2 m/S 768 mmHg 88%
    07:00 +9°C° 0 mm 2 m/S 768 mmHg 85%
    08:00 +10°C° 0 mm 2 m/S 768 mmHg 82%
    09:00 +12°C° 0 mm 2 m/S 768 mmHg 80%
    10:00 +12°C° 0 mm 3 m/S 769 mmHg 77%
    11:00 +13°C° 0 mm 3 m/S 768 mmHg 77%
    12:00 +15°C° 0 mm 2 m/S 768 mmHg 77%
    13:00 +15°C° 0 mm 2 m/S 768 mmHg 77%
    14:00 +16°C° 0 mm 2 m/S 768 mmHg 78%
    15:00 +16°C° 0 mm 2 m/S 767 mmHg 78%
    16:00 +16°C° 0 mm 2 m/S 767 mmHg 78%
    17:00 +15°C° 0 mm 2 m/S 767 mmHg 83%
    18:00 +14°C° 0 mm 1 m/S 767 mmHg 88%
    19:00 +13°C° 0 mm 1 m/S 767 mmHg 93%
    20:00 +12°C° 0 mm 1 m/S 767 mmHg 93%
    21:00 +12°C° 0 mm 1 m/S 767 mmHg 94%
    22:00 +11°C° 0 mm 0 m/S 767 mmHg 94%
    23:00 +11°C° 0 mm 1 m/S 767 mmHg 95%

    21 September, Samstag

    Zeit Temperatur Niederschläge Wind Luftdruck Luftfeuchtigkeit
    00:00 +11°C° 0 mm 1 m/S 766 mmHg 95%
    01:00 +11°C° 0 mm 1 m/S 766 mmHg 95%
    02:00 +11°C° 0 mm 1 m/S 766 mmHg 95%
    03:00 +11°C° 0 mm 1 m/S 766 mmHg 95%
    04:00 +10°C° 0 mm 1 m/S 765 mmHg 95%
    05:00 +10°C° 0 mm 1 m/S 765 mmHg 94%
    06:00 +10°C° 0 mm 1 m/S 765 mmHg 94%
    07:00 +11°C° 0 mm 1 m/S 764 mmHg 93%
    08:00 +13°C° 0 mm 2 m/S 764 mmHg 84%
    09:00 +14°C° 0 mm 2 m/S 764 mmHg 76%
    10:00 +16°C° 0 mm 3 m/S 764 mmHg 67%
    11:00 +18°C° 0 mm 3 m/S 764 mmHg 63%
    12:00 +19°C° 0 mm 3 m/S 763 mmHg 58%
    13:00 +20°C° 0 mm 3 m/S 763 mmHg 54%
    14:00 +20°C° 0 mm 3 m/S 762 mmHg 54%
    15:00 +20°C° 0 mm 4 m/S 762 mmHg 55%
    16:00 +20°C° 0 mm 4 m/S 761 mmHg 55%
    17:00 +18°C° 0 mm 3 m/S 761 mmHg 61%
    18:00 +16°C° 0 mm 3 m/S 761 mmHg 68%
    19:00 +14°C° 0 mm 3 m/S 760 mmHg 74%
    20:00 +13°C° 0 mm 3 m/S 760 mmHg 75%
    21:00 +12°C° 0 mm 3 m/S 760 mmHg 75%
    22:00 +12°C° 0 mm 3 m/S 760 mmHg 76%
    23:00 +11°C° 0 mm 3 m/S 759 mmHg 76%

    22 September, Sonntag

    Zeit Temperatur Niederschläge Wind Luftdruck Luftfeuchtigkeit
    00:00 +11°C° 0 mm 3 m/S 759 mmHg 77%
    01:00 +10°C° 0 mm 3 m/S 758 mmHg 77%
    02:00 +10°C° 0 mm 3 m/S 758 mmHg 78%
    03:00 +10°C° 0 mm 3 m/S 758 mmHg 79%
    04:00 +9°C° 0 mm 3 m/S 757 mmHg 81%
    05:00 +9°C° 0 mm 3 m/S 757 mmHg 80%
    06:00 +9°C° 0 mm 3 m/S 757 mmHg 80%
    07:00 +9°C° 0 mm 3 m/S 757 mmHg 80%
    08:00 +12°C° 0 mm 3 m/S 756 mmHg 73%
    09:00 +14°C° 0 mm 3 m/S 756 mmHg 66%
    10:00 +17°C° 0 mm 3 m/S 756 mmHg 59%
    11:00 +19°C° 0 mm 2 m/S 756 mmHg 56%
    12:00 +21°C° 0 mm 2 m/S 756 mmHg 53%
    13:00 +24°C° 0 mm 2 m/S 756 mmHg 49%
    14:00 +24°C° 0 mm 2 m/S 755 mmHg 51%
    15:00 +24°C° 0 mm 1 m/S 755 mmHg 53%
    16:00 +25°C° 0 mm 1 m/S 755 mmHg 55%
    17:00 +23°C° 0 mm 1 m/S 755 mmHg 60%
    18:00 +20°C° 0 mm 2 m/S 755 mmHg 66%
    19:00 +18°C° 0 mm 2 m/S 755 mmHg 71%
    20:00 +18°C° 0 mm 2 m/S 755 mmHg 71%
    21:00 +18°C° 0 mm 2 m/S 755 mmHg 71%
    22:00 +18°C° 0 mm 2 m/S 755 mmHg 71%
    23:00 +18°C° 0 mm 1 m/S 755 mmHg 74%

    23 September, Montag

    Zeit Temperatur Niederschläge Wind Luftdruck Luftfeuchtigkeit
    00:00 +18°C° 0 mm 1 m/S 755 mmHg 77%
    01:00 +18°C° 0 mm 1 m/S 755 mmHg 80%
    02:00 +18°C° 0 mm 1 m/S 755 mmHg 82%
    03:00 +16°C° 0 mm 1 m/S 755 mmHg 85%
    04:00 +16°C° 0 mm 1 m/S 755 mmHg 87%
    05:00 +16°C° 0.2 mm 2 m/S 755 mmHg 89%
    06:00 +16°C° 0.2 mm 2 m/S 755 mmHg 90%
    07:00 +16°C° 0.2 mm 3 m/S 755 mmHg 91%
    08:00 +16°C° 0.7 mm 3 m/S 756 mmHg 92%
    09:00 +15°C° 0.7 mm 4 m/S 756 mmHg 92%
    10:00 +15°C° 0.7 mm 5 m/S 756 mmHg 93%
    11:00 +14°C° 1.2 mm 4 m/S 757 mmHg 93%
    12:00 +14°C° 1.2 mm 4 m/S 757 mmHg 93%
    13:00 +14°C° 1.2 mm 4 m/S 757 mmHg 93%
    14:00 +14°C° 0.3 mm 3 m/S 757 mmHg 92%
    15:00 +16°C° 0.3 mm 3 m/S 758 mmHg 90%
    16:00 +16°C° 0.3 mm 3 m/S 758 mmHg 88%
    17:00 +16°C° 0.1 mm 3 m/S 758 mmHg 90%
    18:00 +14°C° 0.1 mm 3 m/S 758 mmHg 91%
    19:00 +13°C° 0.1 mm 3 m/S 758 mmHg 92%
    20:00 +13°C° 0 mm 3 m/S 759 mmHg 92%
    21:00 +13°C° 0 mm 3 m/S 759 mmHg 93%
    22:00 +12°C° 0 mm 3 m/S 759 mmHg 93%
    23:00 +12°C° 0 mm 3 m/S 760 mmHg 94%
    Mehr zeigen